Temperature
21 22 22 22 22 22 22 22 21 21 21 21 21 21 21 20 20 20 20 20 20 19 19 18 18 18 18 17 17 17 17 16 16 16 16 15 15 15 15 15 15 15 15 15
22 21 21 21 21 21 21 21 21 21 21 21 21 21 22 21 21 21 21 21 20 20 19 18 18 18 18 17 17 17 17 16 16 16 16 15 15 15 15 15 15 15 15 15
22 21 21 21 21 21 21 21 21 21 21 21 21 21 21 22 21 20 20 20 21 20 19 19 18 18 18 18 17 17 17 16 16 16 16 16 15 15 15 15 15 15 15 15
21 21 21 21 21 21 21 21 21 21 21 21 21 21 22 22 21 21 20 20 20 20 19 19 18 18 18 18 17 17 17 17 16 16 16 16 15 15 15 15 15 15 15 15
21 20 21 21 21 21 21 21 21 21 21 21 21 21 22 22 22 22 21 21 20 20 19 19 19 18 18 18 18 17 17 17 17 16 16 16 16 15 15 15 15 15 15 15
21 20 20 20 20 21 21 21 21 21 21 21 22 22 22 23 23 23 22 21 20 20 19 19 19 18 18 18 18 17 17 17 17 16 16 16 16 16 15 15 15 15 15 15
20 20 20 20 20 20 21 21 21 20 21 21 22 22 23 24 24 23 23 22 21 20 19 19 19 18 18 18 18 18 17 17 17 17 16 16 16 16 15 15 15 15 15 15
21 20 20 20 21 21 21 21 21 20 21 21 21 22 24 24 23 22 22 22 21 20 20 19 19 19 18 18 18 18 18 17 17 17 16 16 16 16 16 15 15 15 15 15
21 20 20 20 20 21 21 21 21 21 21 21 22 23 23 23 23 22 22 21 21 20 20 19 19 19 18 18 18 18 18 17 17 17 17 16 16 16 16 16 15 15 15 15
22 20 20 20 20 20 21 21 21 21 21 21 22 22 23 23 23 23 23 22 21 21 20 19 19 19 19 18 18 18 18 17 17 17 17 17 16 16 16 16 16 15 15 15
21 21 20 20 20 21 21 21 21 21 21 21 21 23 24 23 23 23 23 22 21 21 20 20 19 19 19 18 18 18 18 18 17 17 17 17 17 16 16 16 16 16 15 15
21 22 21 21 21 21 21 22 21 21 21 21 22 22 24 23 23 23 23 22 21 21 20 20 19 19 19 18 18 18 18 18 18 18 17 17 17 17 16 16 16 16 15 15
21 21 21 21 20 20 21 21 21 22 21 21 21 22 24 23 23 23 22 22 21 20 20 19 19 19 19 19 18 18 18 18 18 18 17 17 17 17 17 16 16 16 16 15
21 22 22 21 22 22 21 21 21 21 21 22 22 23 23 23 23 23 22 21 21 20 20 19 19 19 19 19 19 19 18 18 18 18 18 17 17 17 17 16 16 16 16 16
22 22 22 22 22 22 22 21 21 21 22 22 22 22 23 24 23 22 22 21 20 20 20 19 19 19 19 19 19 19 19 19 18 18 18 18 17 17 17 16 16 16 16 16
22 22 22 22 22 21 21 21 21 21 21 22 22 22 24 23 22 22 22 21 20 20 20 19 19 19 19 19 19 19 19 19 19 18 18 18 18 17 17 17 16 16 16 16
22 22 22 22 22 21 21 22 22 22 22 22 22 23 24 23 22 22 21 21 20 20 20 20 19 19 19 19 19 19 19 19 19 18 18 18 18 17 17 17 16 16 16 16
22 22 22 22 21 20 23 23 22 22 22 23 23 23 23 22 21 20 20 20 20 20 19 20 20 20 19 19 19 19 19 19 18 18 18 18 18 17 17 17 16 16 16 16
22 22 22 22 21 21 22 22 22 22 22 23 23 23 22 21 21 21 20 19 19 19 19 20 20 20 19 19 19 19 18 18 18 18 18 18 18 17 17 17 16 16 16 16
20 21 22 21 21 21 22 23 21 22 22 23 23 23 22 22 23 23 20 19 19 19 20 20 20 19 19 19 19 19 18 18 18 18 18 18 18 17 17 17 16 16 16 16
20 20 21 21 21 22 22 21 21 21 22 22 22 22 22 22 23 21 20 19 19 20 20 20 20 19 19 19 19 18 18 18 18 18 18 18 18 17 17 17 16 16 16 16
22 21 21 21 21 21 21 21 22 22 22 21 21 21 21 21 20 19 19 19 19 19 19 19 19 19 19 19 19 18 18 18 18 18 18 17 17 17 17 16 16 16 16 15
22 22 22 22 22 21 20 21 20 20 21 21 21 20 20 20 19 19 19 19 19 19 19 19 19 19 19 19 18 18 18 18 18 18 17 17 17 17 16 16 16 16 15 15
21 20 21 21 21 20 19 19 19 19 19 19 19 19 19 19 19 18 18 18 18 19 19 18 18 18 18 18 18 18 18 18 17 17 17 17 17 16 16 16 16 15 15 15
20 20 21 21 21 19 19 19 19 19 19 19 19 18 18 18 18 18 18 18 18 18 18 18 18 18 18 18 18 17 17 17 17 17 17 16 16 16 16 16 16 15 15 15
20 20 21 21 21 21 20 19 18 18 18 18 18 18 18 18 18 18 18 18 18 18 18 18 18 17 17 17 17 17 17 16 16 16 16 16 16 16 16 15 15 15 15 15
Wind_Speed
2 4 4 4 3 2 4 5 5 4 3 4 5 7 8 9 9 10 9 9 9 8 8 7 7 7 8 7 7 7 6 6 4 3 3 3 4 4 5 6 7 6 6 6
4 3 2 3 3 4 5 6 5 3 3 3 4 5 7 9 11 10 10 11 11 10 10 9 9 8 8 8 7 7 6 6 5 3 3 3 3 4 4 5 6 6 6 6
3 3 3 5 5 5 5 5 5 4 2 3 4 5 8 9 9 9 9 9 10 11 12 12 11 10 9 8 8 7 7 6 5 5 4 4 4 3 4 4 5 6 7 7
2 2 4 5 5 4 4 3 4 5 4 3 4 3 7 10 11 11 11 11 11 11 11 11 11 11 10 9 8 8 7 7 6 5 4 4 3 3 4 3 4 5 6 6
2 2 3 4 2 3 2 3 4 4 4 3 5 4 4 8 10 12 13 13 12 12 12 12 12 11 11 10 9 8 8 7 6 5 4 3 3 3 3 3 4 4 5 6
2 2 1 1 1 2 5 5 4 4 4 4 4 5 3 7 9 10 12 14 14 13 12 12 11 11 10 9 9 9 8 7 6 6 5 4 4 4 4 4 4 3 4 4
4 3 2 2 4 4 6 5 4 4 4 2 2 4 3 3 5 8 10 13 14 14 13 13 13 13 12 11 10 10 9 8 8 7 6 5 5 5 4 4 3 3 3 3
4 4 4 3 3 4 6 6 3 2 2 2 3 4 1 1 3 6 8 11 13 13 13 13 14 13 13 13 12 11 10 9 8 8 6 6 6 4 3 3 3 3 3 3
3 3 4 3 2 3 4 4 2 2 1 2 3 3 2 2 4 6 8 10 13 13 13 13 14 14 13 13 13 12 11 10 9 9 7 6 6 5 4 4 3 3 3 3
2 3 4 4 4 2 2 2 3 4 3 3 3 4 3 5 4 5 7 10 12 12 13 13 13 13 13 13 13 12 12 11 10 9 8 6 6 6 5 4 4 3 3 4
4 3 5 5 5 5 5 4 4 3 3 2 2 2 1 2 2 4 5 8 10 12 12 12 12 13 13 13 13 12 12 11 10 10 9 8 7 6 6 5 4 4 4 4
6 4 5 5 2 2 5 5 6 4 3 3 2 1 1 1 2 3 3 5 8 10 11 11 12 13 13 13 13 13 12 12 11 10 9 9 8 7 7 6 6 5 5 4
7 5 5 5 5 5 5 6 6 5 4 4 4 2 2 0 1 2 3 3 6 8 10 11 12 13 14 14 13 13 12 11 11 10 10 9 9 8 8 7 7 6 6 5
6 5 5 3 1 5 6 7 8 8 6 5 6 5 4 4 4 3 3 4 5 7 9 11 11 13 13 13 13 13 12 11 11 11 10 10 9 9 8 7 7 7 6 6
6 6 6 4 2 4 6 8 10 11 9 7 6 7 8 6 5 4 3 4 5 7 9 11 11 12 13 13 13 13 12 12 12 12 11 11 10 9 8 8 8 7 6 6
6 6 6 6 5 6 7 8 10 10 10 10 10 10 7 5 3 3 4 5 6 7 9 10 11 12 13 14 14 13 12 12 12 12 12 10 10 9 9 9 8 7 7 6
7 6 6 5 4 5 7 9 10 9 9 10 10 8 4 3 3 3 4 5 5 6 7 9 10 11 12 13 13 13 13 12 13 12 11 11 10 10 10 9 9 8 8 7
8 8 5 5 5 6 1 1 6 9 10 11 10 8 6 4 2 2 3 4 5 5 6 7 8 9 10 11 12 12 12 12 12 12 12 11 11 11 10 9 9 9 8 8
7 7 5 5 6 5 4 4 5 6 7 7 9 7 5 4 3 2 2 3 4 4 5 6 6 7 8 10 11 11 12 12 12 12 12 12 12 11 11 10 10 9 8 8
6 7 6 6 6 5 3 2 2 4 5 2 5 5 4 6 5 2 2 3 3 3 3 4 5 6 7 8 10 11 11 11 12 11 11 11 12 12 12 11 10 9 8 8
9 7 10 9 7 5 1 3 5 5 2 1 2 4 5 4 1 2 3 3 3 3 3 4 5 5 5 7 9 10 10 10 10 9 10 10 11 11 11 10 9 8 8 8
11 9 10 9 8 6 3 5 5 2 1 1 2 3 3 2 2 3 4 4 4 4 4 4 5 4 4 6 8 8 8 8 7 8 9 9 10 9 9 9 9 8 9 8
9 8 6 7 5 1 4 5 3 2 2 2 2 2 3 3 3 3 4 4 4 4 4 4 5 5 5 5 6 7 7 7 7 8 8 8 9 9 9 10 9 8 8 7
6 5 6 6 6 4 4 4 3 3 3 1 1 3 4 4 4 4 4 4 3 4 4 4 5 5 4 4 5 5 5 6 7 8 8 8 8 8 8 7 8 8 8 8
6 7 7 7 5 4 4 4 3 2 2 2 2 3 3 4 4 4 4 4 4 4 4 4 5 4 4 4 4 4 4 6 7 7 6 6 7 7 7 7 6 8 8 7
7 8 8 7 6 5 4 4 4 4 4 3 3 3 3 4 4 5 4 4 4 4 4 5 5 5 4 4 4 3 4 5 6 6 6 5 5 5 5 5 5 3 4 3
Wind_Direction
159 179 172 170 187 216 181 178 167 151 165 204 190 170 176 181 190 193 190 189 184 178 170 167 169 173 170 170 170 160 162 157 151 138 127 109 90 79 72 62 53 51 48 49
168 164 148 169 173 174 179 180 164 151 157 210 183 190 191 195 204 203 197 191 186 180 172 172 178 179 179 176 177 171 167 165 159 140 121 109 96 85 76 71 62 51 52 52
160 103 143 176 165 169 181 194 182 173 169 178 188 207 207 204 209 209 208 203 193 189 182 180 182 182 181 182 181 178 172 166 163 151 134 127 119 118 102 83 66 52 54 57
135 135 178 185 181 193 177 175 176 179 194 197 215 216 207 205 206 207 207 202 197 196 191 186 186 186 187 186 184 185 178 171 164 163 161 149 133 107 91 83 80 77 63 60
134 156 177 189 202 211 149 153 170 191 212 232 217 238 197 196 208 206 204 201 198 196 193 190 190 188 187 183 183 183 177 175 172 171 159 163 135 114 113 105 94 83 74 64
132 145 216 192 175 189 152 154 160 196 223 234 222 230 212 196 207 199 197 198 197 195 195 192 189 184 184 182 180 179 178 175 174 175 170 172 145 140 134 122 106 98 90 77
163 163 163 183 169 177 195 197 192 193 200 204 180 236 233 191 204 206 199 195 194 193 192 191 189 188 185 183 183 181 179 177 179 179 178 173 165 159 150 139 122 111 100 90
188 173 168 188 213 201 201 220 230 215 195 171 193 225 185 125 200 204 202 193 190 192 192 190 191 191 189 187 186 185 184 183 181 185 180 176 169 169 153 152 135 121 102 95
202 157 139 170 221 233 199 203 286 274 231 228 197 200 204 168 169 178 184 184 187 189 190 191 190 192 190 189 188 189 189 188 184 186 182 180 175 173 163 164 153 134 121 114
209 175 158 165 187 195 263 188 201 221 212 202 193 205 183 164 160 166 177 184 187 187 188 190 191 191 191 190 189 190 195 192 187 188 183 180 180 176 174 170 162 157 142 133
215 199 169 184 207 192 183 196 216 225 257 252 189 147 90 175 184 179 178 189 191 190 189 189 189 190 188 186 187 188 192 191 187 188 185 182 182 179 178 178 171 170 159 155
202 218 189 181 163 257 233 228 220 228 213 247 257 140 101 236 226 210 197 192 192 191 190 189 186 185 186 188 188 189 191 189 188 187 186 186 181 182 184 180 178 175 166 162
183 207 189 177 185 194 217 221 227 242 242 233 233 173 126 152 244 220 211 201 193 191 189 187 185 187 187 189 190 189 190 189 185 185 186 184 183 185 186 182 179 179 173 170
203 215 227 225 188 188 207 210 215 223 232 235 238 254 250 269 263 247 216 205 192 192 190 188 189 190 188 190 191 189 189 187 184 183 187 188 188 187 185 181 178 180 180 180
213 227 227 243 233 214 224 218 214 226 239 251 261 271 280 286 274 253 215 198 193 191 191 191 193 193 190 190 191 190 189 186 184 185 189 192 189 185 183 176 178 178 178 183
217 231 226 227 221 226 238 232 224 228 238 249 262 270 277 283 265 228 209 200 200 195 194 195 196 194 194 193 192 191 190 187 186 189 192 190 187 181 181 180 179 178 179 182
202 218 226 229 203 234 246 228 219 222 226 234 247 257 266 258 238 227 215 207 205 197 195 197 198 197 197 196 194 192 192 188 189 192 192 188 187 184 185 182 179 180 182 181
210 215 227 234 221 242 255 179 219 231 242 243 252 261 257 253 249 243 229 214 207 199 195 197 198 196 195 193 191 190 187 188 191 193 193 191 190 187 183 181 183 188 188 184
219 213 219 230 238 251 243 218 209 226 248 243 243 248 239 218 199 204 199 209 212 204 196 193 193 189 187 186 184 183 186 189 192 194 195 192 191 188 184 186 189 190 189 190
197 218 223 223 235 241 222 144 183 228 239 228 221 217 205 196 203 174 157 179 184 169 174 176 174 176 179 181 179 182 188 191 197 197 197 193 191 190 191 193 193 189 189 193
186 200 217 227 235 242 228 145 171 214 227 135 202 192 185 197 138 97 126 138 135 131 142 155 156 161 171 174 174 183 190 196 198 194 194 191 191 193 193 192 190 188 189 191
202 203 211 219 228 229 154 166 201 241 322 227 188 178 172 155 101 110 124 128 125 123 132 149 151 149 154 165 174 184 194 196 189 183 186 188 189 189 187 186 188 191 191 193
215 218 217 222 232 237 172 203 237 268 238 217 187 175 166 150 135 132 132 129 124 126 134 146 150 145 146 161 176 184 187 184 180 178 182 185 185 186 186 186 186 189 193 201
204 210 215 222 229 222 214 226 230 230 224 195 173 168 162 147 135 131 125 119 120 126 132 139 142 143 145 155 168 178 173 175 178 180 183 185 185 185 186 189 192 194 197 204
198 189 209 224 220 203 206 204 198 173 162 156 142 142 153 141 127 125 124 120 118 117 120 134 145 145 142 145 153 165 169 175 180 181 180 183 186 187 190 192 201 208 208 210
200 202 211 220 207 209 199 184 180 169 157 155 143 126 126 136 129 119 113 113 117 120 123 126 127 130 132 132 135 143 165 181 183 181 180 181 182 185 190 194 198 204 230 210
Height
1530 1529 1529 1529 1529 1530 1531 1533 1536 1538 1538 1539 1538 1540 1542 1546 1548 1549 1551 1553 1555 1558 1560 1563 1565 1567 1569 1570 1572 1572 1573 1574 1574 1574 1575 1575 1574 1574 1573 1572 1571 1570 1569 1569
1529 1530 1530 1531 1531 1531 1532 1535 1537 1538 1538 1539 1539 1539 1540 1544 1546 1547 1549 1551 1554 1557 1559 1562 1564 1566 1568 1570 1572 1573 1574 1574 1575 1575 1575 1575 1575 1575 1574 1573 1572 1571 1571 1570
1527 1531 1532 1532 1532 1533 1533 1534 1536 1538 1539 1537 1540 1542 1540 1541 1544 1546 1548 1550 1552 1555 1557 1560 1563 1565 1567 1569 1571 1573 1574 1574 1575 1575 1575 1575 1575 1576 1575 1575 1574 1573 1572 1571
1529 1532 1532 1532 1532 1532 1535 1533 1534 1537 1540 1541 1540 1545 1538 1536 1540 1543 1545 1547 1550 1553 1556 1558 1561 1564 1566 1568 1570 1572 1573 1574 1575 1575 1576 1577 1577 1577 1577 1576 1575 1575 1574 1573
1531 1531 1532 1533 1533 1533 1534 1534 1534 1536 1537 1540 1538 1541 1535 1533 1536 1537 1541 1544 1547 1551 1554 1556 1559 1562 1565 1567 1569 1571 1573 1574 1575 1576 1576 1577 1578 1578 1577 1577 1577 1577 1576 1575
1531 1533 1533 1533 1534 1534 1534 1535 1536 1536 1537 1544 1537 1539 1536 1528 1529 1531 1536 1540 1544 1548 1551 1554 1557 1560 1563 1566 1568 1570 1572 1573 1575 1576 1577 1577 1578 1578 1578 1578 1578 1578 1577 1577
1532 1533 1534 1535 1535 1535 1534 1537 1543 1545 1545 1542 1534 1536 1531 1522 1525 1528 1531 1536 1541 1545 1548 1552 1555 1558 1561 1563 1566 1568 1571 1572 1574 1576 1577 1577 1578 1578 1579 1579 1579 1579 1579 1578
1531 1534 1532 1533 1532 1533 1532 1533 1541 1547 1545 1539 1535 1534 1524 1522 1525 1528 1530 1533 1538 1542 1545 1548 1552 1555 1558 1561 1564 1567 1569 1571 1573 1575 1576 1577 1578 1578 1579 1579 1579 1580 1580 1579
1528 1532 1532 1533 1533 1531 1531 1531 1531 1535 1536 1539 1532 1527 1522 1522 1523 1526 1528 1531 1535 1539 1542 1545 1549 1552 1556 1559 1562 1565 1568 1570 1572 1574 1576 1577 1578 1578 1579 1579 1580 1580 1580 1580
1524 1531 1531 1533 1533 1533 1531 1530 1533 1536 1542 1542 1534 1528 1524 1521 1522 1523 1526 1529 1532 1536 1539 1543 1546 1550 1553 1557 1560 1563 1566 1569 1571 1573 1575 1576 1577 1578 1578 1579 1580 1580 1580 1580
1524 1528 1532 1531 1531 1530 1532 1533 1531 1531 1532 1537 1538 1530 1517 1518 1519 1521 1523 1526 1529 1533 1536 1540 1543 1547 1550 1554 1557 1560 1564 1566 1569 1571 1573 1575 1576 1577 1578 1579 1579 1580 1580 1580
1523 1524 1527 1527 1528 1528 1527 1527 1528 1534 1534 1531 1532 1530 1515 1517 1519 1520 1522 1524 1527 1530 1534 1537 1541 1544 1548 1551 1555 1558 1561 1564 1566 1569 1571 1573 1575 1576 1577 1578 1579 1579 1580 1581
1522 1523 1529 1532 1533 1530 1528 1526 1526 1526 1528 1530 1532 1528 1515 1516 1518 1519 1521 1523 1525 1528 1532 1535 1538 1541 1544 1548 1552 1555 1558 1561 1564 1567 1569 1571 1573 1574 1576 1577 1578 1579 1580 1580
1520 1518 1522 1528 1523 1521 1525 1526 1526 1527 1529 1527 1525 1521 1515 1515 1517 1518 1520 1522 1524 1526 1529 1532 1535 1538 1541 1545 1549 1552 1555 1558 1561 1564 1567 1569 1571 1573 1574 1576 1577 1578 1579 1580
1518 1516 1516 1516 1517 1519 1520 1522 1523 1524 1522 1523 1519 1518 1514 1513 1515 1517 1519 1521 1522 1525 1527 1530 1532 1535 1538 1542 1546 1549 1552 1556 1558 1561 1564 1567 1569 1571 1573 1574 1575 1577 1578 1579
1515 1515 1515 1517 1517 1518 1519 1518 1519 1521 1520 1519 1518 1516 1511 1513 1514 1515 1517 1519 1521 1522 1525 1527 1530 1533 1535 1539 1542 1546 1549 1552 1556 1558 1561 1564 1567 1568 1570 1572 1574 1575 1576 1577
1512 1513 1516 1516 1516 1518 1519 1513 1514 1515 1514 1515 1516 1512 1510 1512 1513 1515 1516 1517 1518 1520 1522 1524 1527 1530 1532 1536 1539 1542 1546 1549 1552 1555 1558 1561 1563 1565 1568 1570 1571 1573 1574 1576
1510 1511 1512 1514 1518 1526 1512 1506 1508 1510 1510 1509 1509 1508 1510 1511 1513 1514 1515 1516 1517 1518 1520 1522 1525 1527 1530 1533 1536 1540 1543 1546 1549 1552 1555 1557 1560 1562 1564 1567 1569 1571 1572 1574
1508 1510 1512 1514 1518 1515 1509 1507 1508 1510 1508 1506 1506 1507 1509 1511 1511 1512 1513 1514 1515 1516 1518 1520 1522 1524 1527 1530 1533 1536 1539 1542 1545 1548 1551 1553 1556 1559 1561 1563 1565 1568 1569 1571
1510 1508 1510 1513 1518 1519 1507 1504 1507 1509 1508 1503 1504 1505 1507 1509 1507 1509 1512 1512 1513 1515 1516 1518 1520 1522 1525 1528 1530 1533 1536 1539 1541 1544 1547 1550 1553 1555 1557 1560 1562 1564 1566 1568
1508 1509 1510 1511 1513 1506 1502 1505 1508 1513 1507 1503 1503 1505 1506 1507 1507 1510 1510 1511 1512 1514 1515 1517 1519 1521 1523 1525 1528 1530 1533 1535 1538 1541 1544 1546 1549 1551 1554 1556 1559 1561 1563 1565
1498 1503 1505 1507 1511 1509 1502 1504 1504 1502 1502 1503 1504 1505 1506 1507 1509 1509 1510 1511 1512 1513 1515 1516 1517 1519 1521 1523 1526 1528 1530 1533 1536 1538 1540 1543 1545 1548 1550 1552 1555 1557 1559 1561
1493 1494 1495 1497 1500 1499 1500 1501 1502 1502 1502 1503 1504 1505 1506 1507 1508 1509 1510 1511 1512 1513 1514 1515 1517 1518 1520 1522 1524 1526 1528 1530 1533 1535 1537 1539 1542 1544 1546 1549 1551 1553 1555 1556
1492 1495 1495 1496 1496 1498 1500 1500 1501 1501 1502 1502 1504 1505 1505 1506 1507 1508 1509 1510 1511 1512 1513 1514 1516 1517 1519 1521 1522 1524 1526 1528 1530 1532 1534 1536 1538 1541 1543 1545 1547 1549 1550 1552
1489 1493 1493 1493 1495 1497 1498 1499 1500 1500 1501 1502 1503 1504 1505 1505 1507 1507 1508 1509 1510 1511 1512 1513 1515 1516 1518 1519 1521 1522 1524 1526 1528 1530 1532 1533 1535 1537 1539 1541 1543 1545 1546 1548
1488 1489 1489 1489 1491 1493 1496 1497 1499 1499 1500 1501 1502 1503 1504 1505 1506 1507 1508 1509 1510 1511 1512 1513 1514 1515 1517 1518 1519 1521 1523 1524 1526 1528 1529 1530 1532 1533 1535 1537 1539 1540 1542 1543